WetterOnline ( https://www.wetteronline.de )

Wetter aktuell Hoyerswerda

Aktuelles Wetter: Hoyerswerda (116m)

6-stündlich | Neueste Meldungen
Ortszeit Temperatur Wetter
Mi, 25.11. 1:00 -3.2° C wolkenlos
Di, 24.11. 19:00 2.5° C wolkenlos
Di, 24.11. 13:00 8.2° C leicht bewölkt
Di, 24.11. 7:00 0.6° C wolkig
Di, 24.11. 1:00 1.3° C wolkig
Mo, 23.11. 19:00 5.3° C fast wolkenlos
Mo, 23.11. 13:00 8.8° C leicht bewölkt
Mo, 23.11. 7:00 6.8° C leichter Regen
Ortszeit Temperatur Wetter
Mi, 25.11. 4:00 -1.9° C wolkig
Mi, 25.11. 3:50 -1.9° C wolkig
Mi, 25.11. 3:40 -3.1° C wolkig
Mi, 25.11. 3:30 -3.9° C wolkig
Mi, 25.11. 3:20 -3.9° C wolkig
Mi, 25.11. 3:10 -3.7° C wolkig
Mi, 25.11. 3:00 -4.1° C wolkig
Mi, 25.11. 2:30 -4.0° C leicht bewölkt
Mi, 25.11. 2:00 -3.9° C wolkenlos
Mi, 25.11. 1:30 -3.5° C wolkenlos
Mi, 25.11. 1:00 -3.2° C wolkenlos
Mi, 25.11. 0:30 -3.5° C wolkenlos
Ortszeit Relative Feuchte Sichtweite
Mi, 25.11. 1:00 100% 3.3 km
Di, 24.11. 19:00 84% 22 km
Di, 24.11. 13:00 63% 26 km
Di, 24.11. 7:00 92% 30 km
Di, 24.11. 1:00 94% 28 km
Mo, 23.11. 19:00 82% 40 km
Mo, 23.11. 13:00 69% 50 km
Mo, 23.11. 7:00 92% 18 km
Ortszeit Relative Feuchte Sichtweite
Mi, 25.11. 4:00 98% 8 km
Mi, 25.11. 3:50 98% -
Mi, 25.11. 3:40 97% -
Mi, 25.11. 3:30 96% 6 km
Mi, 25.11. 3:20 96% -
Mi, 25.11. 3:10 99% -
Mi, 25.11. 3:00 98% 5.0 km
Mi, 25.11. 2:30 98% 5.0 km
Mi, 25.11. 2:00 98% 5.0 km
Mi, 25.11. 1:30 97% 7 km
Mi, 25.11. 1:00 100% 3.3 km
Mi, 25.11. 0:30 99% 3.4 km
Ortszeit Niederschlagsmenge Niederschlagsart
Mi, 25.11. 1:00 0.0 l/m2 in 6 Std. -
Di, 24.11. 19:00 0.0 l/m2 in 12 Std. -
Di, 24.11. 13:00 0.0 l/m2 in 6 Std. -
Di, 24.11. 7:00 0.0 l/m2 in 12 Std. -
Di, 24.11. 1:00 0.0 l/m2 in 6 Std. -
Mo, 23.11. 19:00 0.1 l/m2 in 12 Std. -
Mo, 23.11. 13:00 0.1 l/m2 in 6 Std. Regen
Mo, 23.11. 7:00 0.2 l/m2 in 12 Std. Regen
Ortszeit Niederschlagsmenge Niederschlagsart
Mi, 25.11. 4:00 0.0 l/m2 in 1 Std. -
Mi, 25.11. 3:50 keine Meldung -
Mi, 25.11. 3:40 keine Meldung -
Mi, 25.11. 3:30 0.0 l/m2 in 1 Std. -
Mi, 25.11. 3:20 keine Meldung -
Mi, 25.11. 3:10 keine Meldung -
Mi, 25.11. 3:00 0.0 l/m2 in 1 Std. -
Mi, 25.11. 2:30 0.0 l/m2 in 1 Std. -
Mi, 25.11. 2:00 0.0 l/m2 in 1 Std. -
Mi, 25.11. 1:30 0.0 l/m2 in 1 Std. -
Mi, 25.11. 1:00 0.0 l/m2 in 1 Std. -
Mi, 25.11. 0:30 0.0 l/m2 in 1 Std. -
Ortszeit Stärke Spitze Richtung
km/h Bft. km/h Grad Sektor
Mi, 25.11. 1:00 0 0 22 - -
Di, 24.11. 19:00 13 3 24 170° S
Di, 24.11. 13:00 11 2 18 170° S
Di, 24.11. 7:00 11 2 17 170° S
Di, 24.11. 1:00 4 1 18 250° W
Mo, 23.11. 19:00 13 3 44 250° W
Mo, 23.11. 13:00 29 5 43 270° W
Mo, 23.11. 7:00 19 3 28 260° W
Ortszeit Stärke Spitze Richtung
km/h Bft. km/h Grad Sektor
Mi, 25.11. 4:00 9 2 13 150° SO
Mi, 25.11. 3:50 9 2 - 150° SO
Mi, 25.11. 3:40 7 2 - 150° SO
Mi, 25.11. 3:30 6 1 9 140° SO
Mi, 25.11. 3:20 6 1 - 140° SO
Mi, 25.11. 3:10 7 2 - 150° SO
Mi, 25.11. 3:00 6 1 7 140° SO
Mi, 25.11. 2:30 2 1 4 90° O
Mi, 25.11. 2:00 0 0 7 - -
Mi, 25.11. 1:30 2 1 4 60° NO
Mi, 25.11. 1:00 0 0 4 - -
Mi, 25.11. 0:30 2 1 4 250° W
Ortszeit Untergrenze Bedeckung Gattung
total tief tief mittel hoch
Mi, 25.11. 1:00 - 0/8 0/8 - - -
Di, 24.11. 19:00 - 0/8 0/8 - - -
Di, 24.11. 13:00 7500 m 8/8 0/8 - - -
Di, 24.11. 7:00 7200 m 8/8 0/8 - - -
Di, 24.11. 1:00 6000 m 5/8 5/8 - - -
Mo, 23.11. 19:00 1080 m 1/8 1/8 - - -
Mo, 23.11. 13:00 810 m 2/8 2/8 - - -
Mo, 23.11. 7:00 300 m 8/8 8/8 - - -
Ortszeit Bedeckungsgrad in Achtel und Wolkenuntergrenze
Mi, 25.11. 4:00 8(9000m)
Mi, 25.11. 3:50 8(9000m)
Mi, 25.11. 3:40 8(9000m)
Mi, 25.11. 3:30 8(10500m)
Mi, 25.11. 3:20 8(10500m)
Mi, 25.11. 3:10 8(10500m)
Mi, 25.11. 3:00 8(10500m)
Mi, 25.11. 2:30 3(10500m)
Mi, 25.11. 2:00 keine Wolken
Mi, 25.11. 1:30 keine Wolken
Mi, 25.11. 1:00 keine Wolken
Mi, 25.11. 0:30 keine Wolken
Ortszeit Luftdruck NN (hPa) Tendenz (hPa in 3 Std.)
Mi, 25.11. 1:00 1023 - 0,9
Di, 24.11. 19:00 1025 - 0,8
Di, 24.11. 13:00 1027 - 1,5
Di, 24.11. 7:00 1028 - 0,2
Di, 24.11. 1:00 1030 + 0,1
Mo, 23.11. 19:00 1029 + 1,4
Mo, 23.11. 13:00 1026 + 0,3
Mo, 23.11. 7:00 1024 + 0,3
Ortszeit Luftdruck NN (hPa) Tendenz (hPa in 3 Std.)
Mi, 25.11. 4:00 1022 - 1,2
Mi, 25.11. 3:50 1022 keine Meldung
Mi, 25.11. 3:40 1022 keine Meldung
Mi, 25.11. 3:30 1022 - 1,2
Mi, 25.11. 3:20 1022 keine Meldung
Mi, 25.11. 3:10 1023 keine Meldung
Mi, 25.11. 3:00 1023 - 1,0
Mi, 25.11. 2:30 1023 - 1,0
Mi, 25.11. 2:00 1023 - 0,9
Mi, 25.11. 1:30 1023 - 1,0
Mi, 25.11. 1:00 1023 - 0,9
Mi, 25.11. 0:30 1024 - 0,8
Ortszeit Schneehöhe (cm)
Mi, 25.11. 1:00 0
Di, 24.11. 19:00 0
Di, 24.11. 13:00 0
Di, 24.11. 7:00 0
Di, 24.11. 1:00 0
Mo, 23.11. 19:00 0
Mo, 23.11. 13:00 0
Mo, 23.11. 7:00 0
Ortszeit Schneehöhe (cm)
Mi, 25.11. 4:00 0
Mi, 25.11. 3:50 0
Mi, 25.11. 3:40 0
Mi, 25.11. 3:30 0
Mi, 25.11. 3:20 0
Mi, 25.11. 3:10 0
Mi, 25.11. 3:00 0
Mi, 25.11. 2:30 0
Mi, 25.11. 2:00 0
Mi, 25.11. 1:30 0
Mi, 25.11. 1:00 0
Mi, 25.11. 0:30 0
Link zu dieser Seite / Seite empfehlen

Das Wetter in ...